Location: Squirrel Cove
(50.1074°N, 124.9139°W)
Time: 12:32:37
(UTC-07:00)

PCSat - Pass Details

Date: 28 May 2022
Orbit: 784 x 795 km, 67.1° (Epoch: 26 June)

Event Time Altitude Azimuth Distance (km) Brightness Sun altitude
Rises 22:48:53 0° 315° (NW) 3,304 14.8 -11.1°
Reaches altitude 10° 22:52:31 10° 340° (NNW) 2,374 13.4 -11.5°
Maximum altitude 22:55:28 15° 13° (NNE) 2,069 12.4 -11.7°
Drops below altitude 10° 22:58:25 10° 46° (NE) 2,373 12.2 -12.0°
Sets 23:02:02 0° 70° (ENE) 3,300 12.7 -12.3°
